Wind_Speed
15 15 15 15 15 15 15 14 14 14 14 13 13 13 12 12 11 11 11 10 10 9 9 9 7 6 6 7 7 7 7 8 8 8 9 9 10 10 10 11 12 12
16 16 16 15 16 16 16 15 15 14 13 13 13 13 12 12 11 11 11 10 10 9 10 9 8 7 7 8 7 7 7 7 8 8 9 9 10 10 10 11 11 11
16 16 16 15 15 15 15 15 15 14 14 13 13 13 12 12 12 12 12 11 11 10 11 10 9 8 9 9 9 8 8 8 7 8 9 9 10 10 10 11 11 10
17 16 16 15 15 15 15 15 15 15 14 14 14 13 13 13 13 13 13 13 12 12 12 11 11 10 10 10 10 10 10 9 9 8 9 9 9 10 11 11 11 10
17 17 16 16 16 16 16 16 15 15 15 14 14 14 14 14 14 14 14 14 14 14 13 13 12 12 11 11 11 11 11 10 10 9 9 9 9 9 10 10 10 10
18 18 17 17 17 17 17 17 16 16 16 16 15 15 15 15 15 15 15 15 16 15 15 14 14 13 13 12 12 12 12 12 11 9 9 9 9 9 9 10 10 10
18 18 18 17 17 17 17 17 17 17 17 17 17 16 16 16 16 15 15 15 15 15 15 15 15 14 14 13 13 13 13 12 11 10 10 10 10 10 10 10 10 11
18 18 18 18 17 17 16 17 17 17 17 17 17 16 15 15 15 15 15 15 15 15 15 15 15 15 14 14 14 14 13 13 12 12 12 11 11 10 10 10 10 11
18 18 18 18 18 17 17 17 16 17 17 16 15 15 15 15 15 15 15 15 15 15 15 15 15 15 14 14 14 14 13 13 13 13 14 13 12 11 12 12 12 12
18 18 18 18 17 17 17 17 17 17 16 15 15 15 15 15 16 16 16 15 15 16 15 14 15 15 15 14 14 14 14 13 14 14 14 14 13 13 13 13 12 12
20 19 19 18 18 17 17 18 18 17 17 16 15 15 16 16 16 17 16 16 16 16 16 15 15 16 16 16 15 15 14 14 14 14 14 14 14 15 14 13 13 13
21 20 20 19 18 18 18 18 18 17 17 16 15 15 16 16 16 16 16 16 17 17 17 17 17 17 17 17 17 16 15 14 14 15 15 15 15 15 15 14 14 14
21 20 20 19 19 19 19 19 18 17 16 16 15 14 14 14 14 14 15 16 17 17 17 17 17 16 17 17 17 16 16 15 15 15 16 16 16 15 15 15 15 15
21 20 20 20 19 20 20 20 19 18 17 16 15 14 13 13 13 14 14 14 15 16 17 17 17 16 16 16 16 16 16 16 16 16 16 16 16 16 15 14 14 14
21 21 21 21 21 21 21 21 20 19 19 18 16 15 14 14 14 14 14 13 13 15 16 16 16 16 16 15 15 16 16 16 17 17 16 15 17 17 15 15 15 14
22 22 23 23 23 22 22 22 21 20 19 18 17 16 16 16 16 15 14 13 13 13 15 15 15 15 15 15 15 16 16 17 18 18 16 16 16 16 16 15 15 15
24 24 24 25 25 24 23 22 22 21 20 18 17 17 17 17 16 16 15 15 15 14 14 14 15 15 15 15 16 16 17 18 20 18 16 16 16 16 16 16 16 17
24 24 24 25 25 25 24 24 23 22 21 20 19 18 17 17 16 15 15 15 16 15 14 14 15 16 16 16 16 17 17 19 22 19 16 16 17 16 16 16 18 18
25 25 25 25 25 25 25 24 24 23 22 21 20 19 19 17 16 16 16 16 15 15 15 15 16 17 17 17 17 18 18 19 22 20 16 15 17 17 16 18 19 19
27 27 26 25 25 25 25 25 24 24 23 22 22 21 20 19 18 18 17 16 16 15 15 16 17 17 17 17 18 19 19 19 21 21 18 17 17 17 18 18 19 19
28 28 28 27 25 25 25 25 25 25 23 22 22 22 21 20 20 20 19 18 18 17 17 17 17 17 17 18 19 20 20 20 20 21 21 20 19 18 18 18 19 20
29 29 29 27 26 26 26 25 25 24 23 22 22 22 21 21 21 22 22 21 20 20 20 19 19 19 19 19 20 21 21 21 21 21 22 21 21 21 20 20 21 21
28 29 29 28 27 27 25 25 24 23 23 23 22 22 21 21 21 22 22 23 23 22 22 22 22 21 21 21 22 22 22 22 22 23 23 23 23 23 24 24 24 24
26 26 28 31 30 26 24 25 25 24 24 25 24 23 22 22 23 23 23 23 24 24 24 24 24 24 24 23 23 23 24 24 24 25 25 25 25 26 27 27 27 28
24 25 26 28 27 24 24 26 27 27 27 27 26 25 25 24 25 25 25 24 24 25 25 25 25 25 26 26 26 26 26 26 26 27 27 27 27 28 29 29 29 30
23 24 25 26 26 25 25 26 27 28 29 28 26 26 25 25 25 26 26 27 28 27 27 26 27 28 28 28 28 28 28 27 27 27 27 26 27 28 28 29 30 30
Wind_Direction
173 168 170 173 174 175 178 183 185 188 188 185 183 183 185 185 180 175 172 176 181 184 189 191 194 201 205 208 215 224 230 227 222 222 224 224 221 221 225 231 236 240
179 176 176 177 178 178 180 183 185 187 189 189 188 189 192 192 189 183 180 184 190 192 195 197 201 206 207 209 216 225 230 228 223 224 228 229 226 224 224 230 235 240
184 183 183 183 182 182 184 187 188 190 193 194 195 197 198 200 198 193 189 192 197 199 200 202 206 212 212 212 214 220 224 226 225 226 229 230 229 226 226 230 234 239
187 187 188 188 187 187 188 189 190 193 196 199 202 203 204 205 205 202 198 197 200 203 204 207 211 216 217 214 213 214 216 221 225 226 227 229 229 228 229 231 233 237
189 190 191 192 191 191 191 190 192 195 197 201 205 205 204 204 205 205 204 202 203 205 206 209 215 219 220 218 217 215 214 218 222 224 226 227 229 232 235 236 237 239
191 193 194 196 195 194 193 193 195 197 197 201 202 201 199 199 201 203 204 205 207 208 209 212 217 221 221 221 221 220 217 219 221 222 227 230 230 233 236 237 241 244
193 194 195 198 200 199 197 197 199 199 200 202 201 199 198 198 201 204 206 210 214 217 219 219 221 223 224 225 225 224 222 222 222 222 227 231 233 235 237 237 241 245
196 197 197 200 202 202 202 203 204 204 206 207 205 203 202 203 206 209 212 216 221 226 229 230 229 226 225 226 227 226 225 226 227 225 228 232 235 240 244 243 243 244
201 201 202 202 203 202 203 205 208 209 211 213 211 210 209 210 212 215 218 220 223 227 231 235 236 232 228 226 227 227 227 227 229 229 232 236 238 243 246 246 246 248
206 206 206 207 205 204 203 207 210 212 215 216 215 215 216 216 218 221 223 225 228 231 233 236 240 241 236 231 229 230 230 231 233 234 237 240 241 244 246 249 252 255
209 209 209 209 208 206 206 209 211 213 215 217 218 220 222 223 225 226 228 231 233 234 235 236 238 242 244 240 236 235 235 237 239 241 243 244 245 248 251 254 255 257
213 211 211 210 209 208 209 211 213 214 216 218 220 225 230 231 233 235 236 238 237 235 234 235 236 239 244 246 243 241 240 242 244 246 248 249 250 253 255 256 256 257
219 217 216 215 213 211 212 214 213 214 216 218 220 225 230 232 234 237 238 239 238 235 232 235 237 238 243 247 248 248 246 246 247 248 251 254 254 254 254 255 256 257
222 222 222 220 219 216 216 217 215 214 215 217 219 223 224 225 228 231 234 235 234 232 231 234 237 238 241 244 248 250 250 251 252 251 253 255 255 255 255 256 257 257
223 224 225 224 224 222 221 222 220 217 217 216 217 220 222 223 224 227 231 233 231 229 231 235 237 237 239 241 244 248 250 252 253 252 252 253 253 254 253 255 258 260
222 223 224 225 225 225 224 225 224 223 222 220 218 220 222 224 225 227 230 233 233 233 233 234 235 236 238 240 243 245 246 248 250 251 251 252 254 256 255 254 259 261
220 223 225 225 226 227 226 226 227 227 227 226 224 224 225 227 228 229 231 233 235 235 234 233 234 237 242 246 249 250 250 250 251 251 251 252 255 256 257 258 260 260
217 222 226 228 229 230 230 229 228 229 230 229 228 226 226 228 229 231 233 235 236 237 236 236 235 237 243 248 253 255 254 256 258 257 254 256 256 254 255 260 262 261
217 220 226 229 231 231 231 230 229 229 230 230 229 227 226 227 229 231 233 236 238 239 239 240 238 238 241 244 249 252 252 256 262 264 261 257 258 255 253 255 259 262
222 219 221 224 229 231 230 230 229 229 230 232 232 230 229 228 228 230 232 234 237 238 238 239 240 240 243 245 248 250 250 252 259 266 267 262 258 256 252 252 256 259
230 226 223 221 223 228 230 229 228 227 228 231 235 236 235 233 231 230 231 232 234 237 238 239 241 241 243 247 248 250 252 254 256 261 265 265 262 261 260 259 260 260
233 233 232 226 221 223 228 231 231 231 230 229 231 235 239 239 237 236 235 234 234 237 239 241 242 242 242 245 247 249 251 255 257 259 260 261 262 263 265 265 264 265
235 239 239 235 228 222 223 228 232 234 235 236 233 231 235 241 243 243 242 240 238 237 238 240 241 241 242 244 246 249 251 253 256 258 260 261 263 265 266 267 268 270
236 240 241 238 233 225 221 226 230 229 232 240 241 234 231 235 240 243 245 246 246 244 242 241 241 241 243 244 245 247 249 252 254 257 259 262 264 266 268 269 271 272
231 234 238 239 237 229 223 228 233 231 229 234 238 237 234 234 239 242 246 249 251 251 249 248 247 246 245 246 247 247 249 251 254 257 260 262 264 265 267 269 271 272
234 234 238 240 237 233 229 229 233 235 235 234 235 235 236 239 243 245 246 247 248 248 249 250 252 252 249 249 250 250 251 254 256 259 262 264 267 269 270 272 273 273
Height
3225 3226 3227 3228 3229 3229 3231 3232 3233 3234 3236 3237 3238 3239 3240 3241 3242 3243 3244 3245 3246 3247 3248 3249 3250 3250 3251 3252 3253 3253 3254 3254 3255 3255 3256 3256 3257 3257 3258 3258 3258 3259
3225 3226 3227 3228 3229 3230 3231 3232 3233 3234 3235 3236 3237 3238 3239 3240 3241 3242 3243 3244 3245 3247 3248 3249 3249 3250 3251 3251 3252 3253 3253 3254 3254 3255 3255 3256 3256 3257 3257 3257 3258 3258
3225 3226 3227 3228 3229 3230 3231 3232 3233 3234 3235 3236 3237 3238 3239 3240 3241 3242 3243 3244 3245 3246 3247 3248 3249 3250 3250 3251 3252 3253 3253 3254 3254 3254 3255 3255 3256 3256 3256 3257 3257 3257
3225 3226 3227 3228 3229 3230 3231 3232 3233 3234 3235 3236 3237 3237 3238 3239 3241 3242 3243 3244 3245 3246 3247 3248 3249 3249 3250 3251 3251 3252 3253 3253 3254 3254 3254 3255 3255 3255 3256 3256 3256 3257
3224 3225 3227 3228 3229 3230 3231 3232 3233 3234 3235 3236 3237 3237 3238 3239 3240 3241 3242 3243 3244 3246 3246 3248 3248 3249 3250 3250 3251 3252 3252 3253 3253 3254 3254 3254 3254 3255 3255 3256 3256 3256
3223 3224 3226 3227 3228 3229 3231 3232 3233 3234 3235 3235 3236 3237 3238 3239 3240 3241 3242 3243 3244 3245 3246 3247 3248 3249 3249 3250 3250 3251 3251 3252 3253 3253 3253 3254 3254 3254 3254 3255 3255 3255
3222 3223 3225 3226 3227 3228 3230 3231 3232 3233 3234 3234 3235 3237 3238 3239 3240 3241 3242 3243 3244 3245 3246 3246 3247 3248 3248 3249 3250 3250 3250 3251 3251 3252 3252 3252 3253 3253 3254 3254 3254 3255
3221 3223 3224 3225 3226 3227 3229 3230 3231 3232 3233 3234 3235 3236 3237 3239 3240 3241 3241 3242 3243 3244 3245 3245 3246 3246 3247 3248 3248 3249 3249 3250 3250 3251 3251 3251 3252 3252 3253 3253 3253 3253
3221 3222 3223 3224 3225 3226 3228 3229 3230 3231 3232 3233 3234 3235 3236 3237 3238 3239 3240 3240 3241 3242 3243 3244 3245 3245 3245 3246 3247 3247 3248 3248 3249 3249 3250 3250 3251 3251 3251 3251 3252 3252
3220 3221 3222 3223 3225 3226 3227 3228 3229 3229 3230 3232 3233 3234 3235 3235 3236 3237 3238 3239 3240 3240 3241 3242 3243 3244 3244 3245 3245 3246 3246 3247 3247 3248 3248 3249 3249 3250 3250 3250 3251 3251
3219 3220 3222 3223 3224 3225 3226 3227 3228 3228 3230 3231 3232 3232 3233 3234 3234 3235 3236 3237 3238 3239 3240 3240 3241 3242 3243 3244 3244 3244 3245 3246 3246 3247 3247 3247 3248 3248 3249 3249 3250 3250
3219 3220 3221 3222 3223 3224 3225 3226 3227 3228 3229 3230 3231 3231 3232 3232 3233 3234 3234 3235 3236 3237 3238 3238 3239 3240 3241 3242 3243 3243 3244 3244 3245 3245 3246 3246 3247 3247 3247 3248 3248 3248
3219 3220 3221 3221 3222 3223 3224 3225 3225 3227 3227 3228 3229 3230 3231 3231 3232 3233 3233 3233 3234 3235 3236 3237 3238 3239 3240 3241 3241 3242 3242 3243 3243 3243 3244 3245 3245 3246 3246 3246 3246 3246
3218 3219 3220 3221 3222 3222 3223 3224 3224 3225 3226 3227 3228 3229 3229 3230 3231 3231 3232 3232 3233 3234 3235 3236 3236 3237 3238 3239 3239 3240 3241 3241 3241 3242 3243 3244 3244 3244 3245 3245 3245 3245
3216 3217 3219 3220 3220 3221 3222 3223 3223 3224 3225 3225 3226 3227 3228 3229 3229 3230 3231 3231 3232 3232 3233 3234 3235 3236 3237 3237 3238 3238 3239 3239 3239 3240 3241 3242 3242 3243 3243 3244 3244 3244
3213 3215 3217 3218 3219 3220 3221 3222 3223 3223 3224 3224 3225 3226 3227 3227 3228 3229 3229 3230 3231 3231 3232 3233 3234 3234 3235 3235 3236 3236 3237 3237 3237 3238 3239 3240 3241 3241 3242 3242 3242 3242
3209 3212 3214 3216 3217 3218 3219 3221 3222 3222 3223 3224 3224 3225 3225 3226 3226 3227 3228 3229 3229 3230 3230 3231 3232 3233 3233 3234 3234 3234 3235 3234 3234 3236 3238 3238 3239 3240 3240 3240 3241 3240
3206 3209 3211 3213 3215 3216 3218 3219 3220 3221 3221 3222 3223 3223 3224 3224 3225 3226 3226 3227 3227 3228 3229 3229 3230 3231 3231 3232 3232 3232 3233 3232 3231 3233 3237 3237 3237 3238 3238 3238 3238 3238
3204 3206 3208 3211 3212 3214 3215 3217 3217 3218 3219 3220 3221 3221 3222 3222 3223 3224 3224 3225 3225 3226 3227 3227 3228 3229 3229 3229 3230 3230 3231 3231 3229 3230 3234 3236 3236 3236 3236 3236 3236 3236
3203 3203 3205 3207 3209 3211 3212 3214 3215 3216 3217 3218 3219 3219 3220 3220 3220 3221 3222 3223 3223 3224 3224 3225 3225 3226 3227 3227 3228 3228 3229 3229 3228 3228 3230 3233 3234 3234 3234 3233 3233 3233
3203 3203 3203 3203 3204 3207 3209 3210 3212 3213 3214 3215 3216 3217 3218 3218 3218 3219 3219 3220 3220 3221 3221 3222 3223 3224 3224 3225 3226 3226 3226 3227 3227 3227 3227 3229 3230 3230 3230 3230 3231 3231
3201 3202 3202 3202 3202 3204 3206 3208 3210 3211 3212 3213 3214 3214 3215 3216 3216 3217 3217 3217 3217 3218 3219 3220 3220 3221 3222 3222 3223 3224 3224 3224 3225 3225 3226 3226 3227 3227 3227 3227 3228 3228
3198 3200 3202 3203 3201 3201 3203 3205 3207 3209 3210 3211 3212 3211 3212 3213 3214 3214 3215 3215 3215 3215 3216 3217 3218 3218 3219 3220 3221 3221 3222 3222 3222 3222 3223 3223 3224 3225 3225 3225 3225 3225
3194 3197 3199 3200 3199 3198 3199 3202 3204 3205 3207 3209 3210 3209 3208 3209 3210 3211 3212 3212 3213 3213 3213 3214 3215 3216 3216 3217 3218 3218 3219 3219 3219 3219 3220 3221 3221 3222 3222 3222 3223 3223
3192 3195 3196 3197 3197 3196 3194 3197 3200 3202 3203 3204 3205 3205 3206 3206 3207 3207 3208 3209 3210 3210 3211 3212 3212 3213 3213 3214 3214 3215 3216 3216 3216 3216 3217 3218 3218 3218 3219 3219 3219 3219
3190 3193 3194 3195 3195 3192 3190 3192 3196 3198 3198 3198 3200 3202 3203 3203 3204 3204 3205 3206 3207 3208 3208 3209 3210 3210 3211 3211 3211 3212 3212 3213 3213 3213 3213 3214 3214 3215 3215 3215 3215 3215